Radiation Dose at Monitoring Post of Fukushima Daini Nuclear Power Station
Date,Time,MP-1(microSv/h),MP-2(microSv/h),MP-3(microSv/h),MP-4(microSv/h),MP-5(microSv/h),MP-6(microSv/h),MP-7(microSv/h),Wind Direction,Wind Velocity(m/s),Rain
2023/11/18,00:00,0.144,0.129,0.204,0.196,0.206,0.117,0.075,west,8.7,No
2023/11/18,00:10,0.143,0.130,0.206,0.195,0.206,0.116,0.075,west,9.2,No
2023/11/18,00:20,0.143,0.129,0.204,0.195,0.205,0.117,0.076,west,10.3,No
2023/11/18,00:30,0.144,0.129,0.206,0.196,0.205,0.117,0.075,west,10.1,No
2023/11/18,00:40,0.144,0.130,0.205,0.195,0.205,0.117,0.075,west,10.4,No
2023/11/18,00:50,0.143,0.130,0.205,0.195,0.205,0.117,0.075,west,10.4,No
2023/11/18,01:00,0.143,0.129,0.205,0.196,0.206,0.116,0.075,west,10.9,No
2023/11/18,01:10,0.145,0.131,0.206,0.194,0.204,0.117,0.074,west,9.5,No
2023/11/18,01:20,0.143,0.130,0.206,0.196,0.205,0.116,0.074,west,8.6,No
2023/11/18,01:30,0.143,0.130,0.207,0.196,0.204,0.116,0.074,west,8.1,No
2023/11/18,01:40,0.144,0.130,0.206,0.195,0.205,0.117,0.075,west,7.1,No
2023/11/18,01:50,0.144,0.130,0.205,0.196,0.205,0.116,0.075,west,6.0,No
2023/11/18,02:00,0.144,0.131,0.206,0.195,0.205,0.117,0.076,west-southwest,3.9,No
2023/11/18,02:10,0.144,0.130,0.205,0.194,0.205,0.118,0.076,west,4.1,No
2023/11/18,02:20,0.143,0.130,0.205,0.196,0.205,0.117,0.076,west-southwest,2.6,No
2023/11/18,02:30,0.144,0.131,0.206,0.196,0.206,0.117,0.075,southwest,3.0,No
2023/11/18,02:40,0.143,0.129,0.206,0.194,0.206,0.117,0.075,west,0.7,No
2023/11/18,02:50,0.144,0.130,0.207,0.195,0.205,0.117,0.075,west-southwest,1.5,No
2023/11/18,03:00,0.144,0.130,0.205,0.197,0.204,0.117,0.075,northwest,2.9,No
2023/11/18,03:10,0.144,0.130,0.206,0.194,0.205,0.117,0.075,west-northwest,4.9,No
2023/11/18,03:20,0.144,0.130,0.206,0.193,0.205,0.117,0.075,west,3.6,No
2023/11/18,03:30,0.144,0.130,0.206,0.197,0.205,0.116,0.075,south-southwest,1.2,No
2023/11/18,03:40,0.142,0.129,0.204,0.194,0.204,0.118,0.075,west-southwest,3.5,No
2023/11/18,03:50,0.143,0.130,0.206,0.195,0.206,0.117,0.075,west-southwest,1.6,No
2023/11/18,04:00,0.144,0.130,0.206,0.194,0.204,0.117,0.076,southeast,1.3,No
2023/11/18,04:10,0.143,0.129,0.205,0.195,0.204,0.117,0.075,south-southwest,3.6,No
2023/11/18,04:20,0.145,0.129,0.206,0.194,0.204,0.117,0.075,south-southwest,3.0,No
2023/11/18,04:30,0.143,0.129,0.206,0.195,0.204,0.117,0.075,south-southwest,3.7,No
2023/11/18,04:40,0.144,0.130,0.205,0.195,0.204,0.116,0.075,southwest,3.6,No
2023/11/18,04:50,0.144,0.129,0.205,0.195,0.204,0.117,0.075,west-southwest,2.8,No
2023/11/18,05:00,0.143,0.128,0.205,0.195,0.205,0.117,0.075,south-southwest,2.3,No
2023/11/18,05:10,0.144,0.130,0.206,0.195,0.205,0.117,0.075,south-southwest,5.3,No
2023/11/18,05:20,0.144,0.130,0.206,0.196,0.206,0.116,0.075,south-southwest,7.4,No
2023/11/18,05:30,0.144,0.129,0.206,0.195,0.204,0.117,0.075,south-southwest,6.9,No
2023/11/18,05:40,0.145,0.131,0.206,0.197,0.205,0.117,0.075,south-southwest,5.1,No
2023/11/18,05:50,0.144,0.129,0.205,0.196,0.205,0.117,0.075,southwest,6.8,No
2023/11/18,06:00,0.144,0.130,0.206,0.196,0.205,0.117,0.075,southwest,5.5,No
2023/11/18,06:10,0.144,0.129,0.207,0.195,0.206,0.117,0.075,south-southwest,6.0,No
2023/11/18,06:20,0.144,0.130,0.205,0.196,0.206,0.118,0.075,south,5.1,No
2023/11/18,06:30,0.144,0.130,0.206,0.196,0.205,0.118,0.075,south-southwest,4.6,No
2023/11/18,06:40,0.144,0.130,0.206,0.197,0.204,0.118,0.076,southwest,5.8,No
2023/11/18,06:50,0.144,0.130,0.207,0.195,0.205,0.118,0.075,southwest,6.0,No
2023/11/18,07:00,0.145,0.131,0.205,0.196,0.205,0.118,0.075,southwest,5.5,No
2023/11/18,07:10,0.144,0.129,0.206,0.196,0.204,0.118,0.075,southwest,5.7,No
2023/11/18,07:20,0.144,0.129,0.206,0.195,0.205,0.118,0.075,west-southwest,6.0,No
2023/11/18,07:30,0.145,0.129,0.207,0.195,0.206,0.118,0.075,southwest,5.1,No
2023/11/18,07:40,0.144,0.130,0.207,0.197,0.205,0.118,0.076,south-southwest,5.8,No
2023/11/18,07:50,0.144,0.130,0.207,0.196,0.205,0.118,0.076,south-southwest,4.3,No
2023/11/18,08:00,0.145,0.130,0.206,0.195,0.205,0.117,0.076,south,3.9,No
2023/11/18,08:10,0.144,0.130,0.206,0.195,0.204,0.118,0.075,south,5.0,No
2023/11/18,08:20,0.143,0.130,0.206,0.195,0.205,0.118,0.075,south-southwest,4.7,No
2023/11/18,08:30,0.145,0.130,0.205,0.195,0.205,0.117,0.075,southwest,4.3,No
2023/11/18,08:40,0.144,0.130,0.206,0.196,0.204,0.117,0.076,southwest,3.9,No
2023/11/18,08:50,0.144,0.130,0.207,0.194,0.205,0.117,0.075,west-southwest,4.7,No
2023/11/18,09:00,0.143,0.129,0.207,0.196,0.205,0.118,0.075,west-southwest,6.0,No
2023/11/18,09:10,0.145,0.130,0.205,0.195,0.206,0.117,0.075,west-southwest,7.4,No
2023/11/18,09:20,0.143,0.129,0.207,0.196,0.205,0.117,0.075,southwest,5.4,No
2023/11/18,09:30,0.144,0.130,0.207,0.194,0.205,0.117,0.075,west-southwest,4.7,No
2023/11/18,09:40,0.144,0.129,0.206,0.196,0.205,0.117,0.075,west-southwest,3.7,No
2023/11/18,09:50,0.143,0.129,0.207,0.195,0.205,0.117,0.075,south-southwest,3.7,No
2023/11/18,10:00,0.143,0.129,0.207,0.196,0.203,0.117,0.075,south-southwest,3.9,No
2023/11/18,10:10,0.144,0.129,0.206,0.195,0.205,0.117,0.074,south-southwest,5.0,No
2023/11/18,10:20,0.143,0.129,0.206,0.196,0.203,0.118,0.075,west-southwest,3.9,No
2023/11/18,10:30,0.144,0.130,0.206,0.196,0.204,0.118,0.075,southwest,5.9,No
2023/11/18,10:40,0.142,0.130,0.207,0.195,0.206,0.117,0.076,southwest,5.9,No
2023/11/18,10:50,0.143,0.130,0.205,0.196,0.204,0.118,0.075,southwest,3.1,No
2023/11/18,11:00,0.144,0.129,0.205,0.194,0.204,0.118,0.075,west-southwest,2.7,No
2023/11/18,11:10,0.143,0.130,0.206,0.195,0.205,0.118,0.076,west-southwest,3.2,No
2023/11/18,11:20,0.145,0.130,0.205,0.195,0.203,0.118,0.075,west-southwest,3.6,No
2023/11/18,11:30,0.144,0.129,0.207,0.196,0.204,0.118,0.075,west-southwest,3.6,No
2023/11/18,11:40,0.142,0.130,0.205,0.195,0.205,0.119,0.076,west-southwest,5.8,No
2023/11/18,11:50,0.144,0.129,0.206,0.194,0.204,0.118,0.075,west,5.4,No
2023/11/18,12:00,0.145,0.130,0.205,0.196,0.203,0.118,0.075,west,5.2,No
2023/11/18,12:10,0.142,0.130,0.206,0.195,0.206,0.118,0.076,west,4.7,No
2023/11/18,12:20,0.145,0.130,0.207,0.197,0.205,0.117,0.075,west,5.0,No
2023/11/18,12:30,0.144,0.130,0.205,0.196,0.203,0.118,0.075,west-southwest,1.5,No
2023/11/18,12:40,0.143,0.129,0.206,0.195,0.206,0.118,0.076,southwest,3.2,No
2023/11/18,12:50,0.145,0.131,0.207,0.196,0.205,0.119,0.075,southwest,5.5,No
2023/11/18,13:00,0.143,0.130,0.207,0.196,0.206,0.118,0.075,southwest,2.8,No
2023/11/18,13:10,0.143,0.130,0.208,0.196,0.206,0.118,0.076,southwest,4.3,No
2023/11/18,13:20,0.146,0.130,0.207,0.197,0.205,0.118,0.075,southwest,2.5,No
2023/11/18,13:30,0.145,0.130,0.207,0.196,0.206,0.118,0.076,west-southwest,1.4,No
2023/11/18,13:40,0.144,0.131,0.206,0.197,0.205,0.118,0.075,west-southwest,2.0,No
2023/11/18,13:50,0.145,0.129,0.207,0.194,0.207,0.118,0.076,south-southwest,2.8,No
2023/11/18,14:00,0.144,0.130,0.208,0.197,0.204,0.117,0.076,southwest,1.9,No
2023/11/18,14:10,0.145,0.130,0.207,0.196,0.206,0.118,0.076,southwest,1.3,No
2023/11/18,14:20,0.145,0.130,0.208,0.197,0.205,0.119,0.075,west,0.9,No
2023/11/18,14:30,0.145,0.130,0.207,0.196,0.206,0.118,0.075,-,CALM,No
2023/11/18,14:40,0.144,0.130,0.208,0.198,0.205,0.118,0.076,west-southwest,0.7,No
2023/11/18,14:50,0.145,0.131,0.208,0.195,0.207,0.117,0.076,southwest,1.2,No
2023/11/18,15:00,0.145,0.131,0.208,0.198,0.206,0.118,0.075,west-northwest,2.1,No
2023/11/18,15:10,0.145,0.131,0.208,0.196,0.207,0.118,0.076,west-northwest,2.8,No
2023/11/18,15:20,0.145,0.130,0.207,0.198,0.206,0.119,0.075,west,3.6,No
2023/11/18,15:30,0.145,0.131,0.208,0.196,0.209,0.117,0.076,west-northwest,5.6,No
2023/11/18,15:40,0.145,0.130,0.207,0.197,0.206,0.118,0.076,west-northwest,6.7,No
2023/11/18,15:50,0.144,0.131,0.206,0.197,0.207,0.118,0.076,west-northwest,9.2,No
2023/11/18,16:00,0.146,0.130,0.208,0.197,0.206,0.119,0.075,west-northwest,7.3,No
2023/11/18,16:10,0.144,0.131,0.207,0.197,0.206,0.118,0.076,west-northwest,10.9,No
2023/11/18,16:20,0.145,0.131,0.209,0.198,0.207,0.118,0.075,west-northwest,12.9,No
2023/11/18,16:30,0.146,0.132,0.209,0.197,0.207,0.120,0.076,west,14.0,Yes
2023/11/18,16:40,0.146,0.132,0.209,0.199,0.206,0.119,0.075,west,14.6,Yes
2023/11/18,16:50,0.146,0.131,0.209,0.200,0.209,0.121,0.076,west,15.8,Yes
2023/11/18,17:00,0.147,0.132,0.211,0.198,0.208,0.121,0.076,west,15.5,Yes
2023/11/18,17:10,0.147,0.133,0.210,0.198,0.209,0.121,0.077,west,14.8,Yes
2023/11/18,17:20,0.148,0.133,0.212,0.200,0.210,0.123,0.077,west-northwest,12.6,Yes
2023/11/18,17:30,0.148,0.134,0.211,0.200,0.209,0.121,0.078,west,14.6,No
2023/11/18,17:40,0.148,0.134,0.211,0.201,0.209,0.122,0.077,west,15.3,No
2023/11/18,17:50,0.147,0.133,0.211,0.200,0.208,0.121,0.078,west,16.2,No
2023/11/18,18:00,0.148,0.132,0.212,0.201,0.208,0.122,0.077,west,15.5,No
2023/11/18,18:10,0.149,0.133,0.211,0.200,0.209,0.121,0.077,west,14.0,No
2023/11/18,18:20,0.146,0.133,0.211,0.200,0.209,0.121,0.077,west,15.1,No
2023/11/18,18:30,0.148,0.133,0.211,0.200,0.209,0.121,0.077,west,15.4,No
2023/11/18,18:40,0.147,0.133,0.211,0.201,0.209,0.121,0.077,west,13.6,No
2023/11/18,18:50,0.148,0.132,0.211,0.199,0.208,0.122,0.077,west,12.9,No
2023/11/18,19:00,0.148,0.133,0.210,0.201,0.209,0.121,0.076,west,15.0,No
2023/11/18,19:10,0.147,0.133,0.211,0.200,0.209,0.121,0.077,west,13.3,No
2023/11/18,19:20,0.148,0.133,0.211,0.199,0.208,0.121,0.077,west-northwest,13.9,No
2023/11/18,19:30,0.147,0.133,0.211,0.199,0.209,0.121,0.077,west-northwest,10.9,No
2023/11/18,19:40,0.147,0.132,0.210,0.199,0.209,0.121,0.077,west-northwest,11.2,No
2023/11/18,19:50,0.147,0.133,0.210,0.200,0.208,0.120,0.076,west,10.9,No
2023/11/18,20:00,0.148,0.132,0.210,0.198,0.209,0.121,0.077,west,16.1,No
2023/11/18,20:10,0.147,0.132,0.210,0.199,0.208,0.119,0.077,west,14.6,No
2023/11/18,20:20,0.147,0.133,0.209,0.201,0.208,0.121,0.077,west-northwest,9.5,No
2023/11/18,20:30,0.147,0.132,0.210,0.200,0.208,0.120,0.077,west,8.4,No
2023/11/18,20:40,0.147,0.133,0.210,0.199,0.207,0.121,0.077,west-northwest,10.1,No
2023/11/18,20:50,0.146,0.133,0.211,0.199,0.208,0.120,0.077,west-northwest,11.7,No
2023/11/18,21:00,0.147,0.133,0.211,0.199,0.207,0.120,0.077,west-northwest,11.8,No
2023/11/18,21:10,0.146,0.131,0.209,0.199,0.207,0.120,0.076,west,11.8,No
2023/11/18,21:20,0.146,0.131,0.210,0.198,0.206,0.119,0.076,west-northwest,10.9,No
2023/11/18,21:30,0.146,0.133,0.211,0.199,0.207,0.120,0.076,west-northwest,8.9,No
2023/11/18,21:40,0.146,0.132,0.210,0.199,0.209,0.120,0.076,west,11.1,No
2023/11/18,21:50,0.146,0.131,0.211,0.199,0.208,0.120,0.076,west-northwest,12.5,No
2023/11/18,22:00,0.147,0.131,0.209,0.199,0.208,0.120,0.077,west,16.7,No
2023/11/18,22:10,0.147,0.132,0.211,0.200,0.208,0.120,0.076,west,17.6,No
2023/11/18,22:20,0.147,0.133,0.211,0.198,0.207,0.119,0.077,west,14.6,No
2023/11/18,22:30,0.146,0.132,0.210,0.199,0.207,0.120,0.076,west,15.6,No
2023/11/18,22:40,0.147,0.133,0.210,0.198,0.208,0.120,0.076,west,18.8,No
2023/11/18,22:50,0.148,0.133,0.210,0.200,0.207,0.120,0.077,west,15.9,No
2023/11/18,23:00,0.147,0.132,0.211,0.199,0.208,0.120,0.076,west,18.8,No
2023/11/18,23:10,0.147,0.132,0.212,0.198,0.207,0.120,0.077,west,15.8,No
2023/11/18,23:20,0.147,0.133,0.211,0.198,0.208,0.121,0.078,west,14.2,Yes
2023/11/18,23:30,0.149,0.133,0.210,0.200,0.208,0.120,0.077,west,11.1,No
2023/11/18,23:40,0.146,0.133,0.210,0.199,0.207,0.120,0.076,west-southwest,6.4,Yes
2023/11/18,23:50,0.147,0.132,0.211,0.200,0.208,0.121,0.077,west-southwest,4.4,Yes
